Weather History for KCMX - September, 2012

Change the Weather History Date:

Sunday, September 30, 2012

  Actual Average Record
Temperature  
Mean Temperature 46 °F -  
Max Temperature 60 °F 58 °F 77 °F (2000)
Min Temperature 33 °F 42 °F 25 °F (1964)
Degree Days  
Heating Degree Days 19    
Moisture  
Dew Point 41 °F    
Average Humidity 84    
Maximum Humidity 100    
Minimum Humidity 55    
Precipitation  
Precipitation 0.01 in - - ()
Sea Level Pressure  
Sea Level Pressure 30.05 in    
Wind  
Wind Speed 4 mph (East)    
Max Wind Speed 10 mph    
Max Gust Speed -    
Visibility 8 miles    
Events      
Averages and records for this station are not official NWS values.
T = Trace of Precipitation, MM = Missing Value Source: NWS Daily Summary

Daily Weather History Graph

Daily Weather History Graph

Search for Another Location

Airport or City:

Trip Planner

Search our weather history database for the weather conditions in past years. The results will help you decide how hot, cold, wet, or windy it might be!

Date:

Astronomy

Sep. 30, 2012 Rise Set
Actual Time 7:52 AM EDT 7:34 PM EDT
Civil Twilight 7:21 AM EDT 8:04 PM EDT
Nautical Twilight 6:46 AM EDT 8:40 PM EDT
Astronomical Twilight 6:10 AM EDT 9:16 PM EDT
Moon 7:31 PM EDT (9/30) 8:28 AM EDT (9/30)
Length of Visible Light 12h 43m
Length of Day
11h 42m
Full, 100% of the Moon is Illuminated
Sep 30
Full
Oct 8
Last Quarter
Oct 15
New
Oct 21
First Quarter
Oct 29
Full

Hourly Weather History & Observations

Time (EDT) Temp. Windchill Dew Point Humidity Pressure Visibility Wind Dir Wind Speed Gust Speed Precip Events Conditions
12:53 AM 44.1 °F 41.5 °F 42.1 °F 93% 30.09 in 10.0 mi ENE 4.6 mph - N/A   Clear
1:53 AM 43.0 °F 40.3 °F 42.1 °F 97% 30.10 in 10.0 mi NE 4.6 mph - N/A   Clear
2:53 AM 43.0 °F 40.3 °F 42.1 °F 97% 30.09 in 10.0 mi ENE 4.6 mph - N/A   Clear
3:53 AM 41.0 °F 38.0 °F 41.0 °F 100% 30.09 in 10.0 mi NE 4.6 mph - 0.01 in   Clear
4:53 AM 37.0 °F - 36.0 °F 96% 30.10 in 10.0 mi Calm Calm - N/A   Clear
5:29 AM 37.4 °F 34.9 °F 37.4 °F 100% 30.07 in 9.0 mi WNW 3.5 mph - N/A   Mostly Cloudy
5:38 AM 37.4 °F 34.9 °F 37.4 °F 100% 30.06 in 5.0 mi NNW 3.5 mph - N/A   Scattered Clouds
5:42 AM 37.4 °F - 35.6 °F 93% 30.06 in 1.5 mi Calm Calm - N/A   Scattered Clouds
5:53 AM 35.1 °F - 35.1 °F 100% 30.09 in 2.0 mi Calm Calm - N/A   Partly Cloudy
6:05 AM 33.8 °F - 33.8 °F 100% 30.06 in 4.0 mi Calm Calm - N/A   Clear
6:12 AM 35.6 °F - 33.8 °F 93% 30.06 in 1.8 mi Calm Calm - N/A   Clear
6:24 AM 35.6 °F - 35.6 °F 100% 30.06 in 4.0 mi Calm Calm - N/A   Clear
6:53 AM 35.1 °F - 34.0 °F 96% 30.09 in 10.0 mi Calm Calm - N/A   Clear
7:08 AM 35.6 °F - 35.6 °F 100% 30.06 in 1.8 mi Calm Calm - N/A   Clear
7:15 AM 33.8 °F 30.8 °F 33.8 °F 100% 30.06 in 3.0 mi NW 3.5 mph - N/A   Clear
7:53 AM 36.0 °F - 35.1 °F 97% 30.09 in 10.0 mi Calm Calm - N/A   Clear
8:53 AM 41.0 °F 38.0 °F 39.0 °F 93% 30.09 in 10.0 mi NW 4.6 mph - N/A   Clear
9:53 AM 51.8 °F - 48.2 °F 88% 30.07 in 10.0 mi East 3.5 mph - N/A   Clear
10:53 AM 54.0 °F - 46.0 °F 75% 30.09 in 10.0 mi East 5.8 mph - N/A   Clear
11:53 AM 55.9 °F - 46.0 °F 69% 30.08 in 10.0 mi SE 5.8 mph - N/A   Partly Cloudy
12:30 PM 57.2 °F - 44.6 °F 63% 30.05 in 10.0 mi SSE 10.4 mph - N/A   Mostly Cloudy
12:53 PM 57.9 °F - 44.1 °F 60% 30.07 in 10.0 mi Variable 4.6 mph - N/A   Mostly Cloudy
1:05 PM 57.2 °F - 44.6 °F 63% 30.05 in 10.0 mi Variable 5.8 mph - N/A   Scattered Clouds
1:36 PM 59.0 °F - 44.6 °F 59% 30.04 in 10.0 mi Variable 6.9 mph - N/A   Mostly Cloudy
1:53 PM 57.9 °F - 44.1 °F 60% 30.05 in 10.0 mi SE 6.9 mph - N/A   Scattered Clouds
2:53 PM 59.0 °F - 43.0 °F 55% 30.03 in 10.0 mi ESE 6.9 mph - N/A   Clear
3:53 PM 59.0 °F - 43.0 °F 55% 30.02 in 10.0 mi ESE 5.8 mph - N/A   Clear
4:53 PM 59.0 °F - 43.0 °F 55% 30.00 in 10.0 mi East 5.8 mph - N/A   Clear
5:53 PM 57.0 °F - 45.0 °F 64% 29.99 in 10.0 mi East 6.9 mph - N/A   Clear
6:53 PM 54.0 °F - 46.0 °F 75% 29.99 in 10.0 mi East 5.8 mph - N/A   Clear
7:53 PM 50.0 °F - 46.0 °F 86% 29.98 in 10.0 mi East 4.6 mph - N/A   Clear
8:53 PM 48.9 °F - 46.0 °F 90% 29.96 in 10.0 mi East 4.6 mph - N/A   Clear
9:53 PM 46.4 °F 44.3 °F 44.6 °F 93% 29.93 in 10.0 mi East 4.6 mph - N/A   Clear
10:53 PM 46.9 °F - 45.0 °F 93% 29.94 in 10.0 mi East 4.6 mph - N/A   Clear
11:53 PM 46.0 °F 44.8 °F 45.0 °F 96% 29.93 in 10.0 mi ENE 3.5 mph - N/A   Clear